DW2149 Weather Reports


Display with metric or nautical units.
time (UTC)temp
F
wind
direction
speed
MPH
gust
MPH
rain 1hr
in
rain 24hr
in
rain mn
in
humidity
%
barometer
mb
20260502180701 73 211 2.0 8.0 0.00 0.00 0.00 48 1011.5
20260502180304 73 217 2.0 8.0 0.00 0.00 0.00 48 1011.4
20260502170516 69 207 0.0 3.0 0.00 0.00 0.00 55 1011.2
20260502170304 69 207 1.0 0.0 0.00 0.00 0.00 55 1011.3
20260502164150 65 219 0.0 6.0 0.00 0.00 0.00 63 1011.4
20260502163949 65 219 0.0 6.0 0.00 0.00 0.00 63 1011.4
20260502163744 64 223 0.0 0.0 0.00 0.00 0.00 65 1011.4
20260502163356 63 223 0.0 3.0 0.00 0.00 0.00 68 1011.4
20260502163001 62 223 0.0 3.0 0.00 0.00 0.00 73 1011.3
20260502162759 61 223 0.0 1.0 0.00 0.00 0.00 76 1011.2
20260502162555 61 223 0.0 5.0 0.00 0.00 0.00 77 1011.2
20260502162158 59 306 0.0 0.0 0.00 0.00 0.00 83 1011.2
20260502161949 58 306 0.0 0.0 0.00 0.00 0.00 84 1011.2
20260502161602 58 310 0.0 0.0 0.00 0.00 0.00 86 1011.2
20260502161353 57 310 0.0 0.0 0.00 0.00 0.00 87 1011.1
20260502161146 57 310 0.0 0.0 0.00 0.00 0.00 87 1011.1
20260502160937 57 310 0.0 0.0 0.00 0.00 0.00 88 1011.2
20260502160730 56 310 0.0 0.0 0.00 0.00 0.00 88 1011.1
20260502160522 56 310 0.0 0.0 0.00 0.00 0.00 88 1011.1
20260502160319 56 310 0.0 0.0 0.00 0.00 0.00 88 1011.1
20260502160107 56 310 0.0 0.0 0.00 0.00 0.00 88 1011.0
20260502151719 51 309 0.0 0.0 0.00 0.00 0.00 85 1010.9
20260502151321 51 309 0.0 0.0 0.00 0.00 0.00 85 1010.8
20260502151111 51 306 0.0 0.0 0.00 0.00 0.00 84 1010.9
20260502150909 51 306 0.0 0.0 0.00 0.00 0.00 84 1010.9
20260502150702 51 306 0.0 0.0 0.00 0.00 0.00 84 1010.9
20260502150453 51 306 0.0 0.0 0.00 0.00 0.00 84 1010.9
20260502150251 51 306 0.0 0.0 0.00 0.00 0.00 84 1010.9
20260502130551 50 306 0.0 0.0 0.00 0.00 0.00 84 1010.2
20260502130344 50 306 0.0 0.0 0.00 0.00 0.00 84 1010.2
20260502130134 50 306 0.0 0.0 0.00 0.00 0.00 84 1010.2
20260502123702 50 306 0.0 0.0 0.00 0.00 0.00 84 1010.3
20260502123449 50 306 0.0 0.0 0.00 0.00 0.00 84 1010.4
20260502123237 50 306 0.0 0.0 0.00 0.00 0.00 84 1010.3
20260502123027 50 306 0.0 0.0 0.00 0.00 0.00 84 1010.4
20260502122820 50 306 0.0 0.0 0.00 0.00 0.00 84 1010.5
20260502122618 50 306 0.0 0.0 0.00 0.00 0.00 84 1010.4
20260502122406 50 306 0.0 0.0 0.00 0.00 0.00 84 1010.5
20260502122013 50 306 0.0 0.0 0.00 0.00 0.00 84 1010.5
20260502121802 50 306 0.0 0.0 0.00 0.00 0.00 84 1010.4
20260502121408 50 306 0.0 0.0 0.00 0.00 0.00 84 1010.5
20260502121204 50 306 0.0 0.0 0.00 0.00 0.00 84 1010.4
20260502120953 50 306 0.0 0.0 0.00 0.00 0.00 84 1010.6
20260502120559 50 306 0.0 0.0 0.00 0.00 0.00 84 1010.5
20260502120355 50 306 0.0 0.0 0.00 0.00 0.00 84 1010.6
20260502120151 50 306 0.0 0.0 0.00 0.00 0.00 84 1010.5
20260502115759 50 306 0.0 0.0 0.00 0.00 0.00 84 1010.6
20260502115226 50 306 0.0 0.0 0.00 0.00 0.00 84 1010.6
20260502115015 50 306 0.0 0.0 0.00 0.00 0.00 84 1010.6
20260502114808 50 306 0.0 0.0 0.00 0.00 0.00 84 1010.6
20260502114600 50 306 0.0 0.0 0.00 0.00 0.00 84 1010.6
20260502114347 50 306 0.0 0.0 0.00 0.00 0.00 83 1010.6
20260502114137 50 306 0.0 0.0 0.00 0.00 0.00 83 1010.6
20260502113930 50 306 0.0 0.0 0.00 0.00 0.00 83 1010.6
20260502113724 50 306 0.0 0.0 0.00 0.00 0.00 83 1010.7
20260502113517 50 306 0.0 0.0 0.00 0.00 0.00 84 1010.6
20260502113257 50 306 0.0 0.0 0.00 0.00 0.00 84 1010.7
20260502113046 50 306 0.0 0.0 0.00 0.00 0.00 84 1010.7
20260502112842 50 306 0.0 0.0 0.00 0.00 0.00 83 1010.7
20260502112632 50 306 0.0 0.0 0.00 0.00 0.00 83 1010.7
20260502112419 50 306 0.0 0.0 0.00 0.00 0.00 83 1010.7
20260502112213 50 306 0.0 0.0 0.00 0.00 0.00 83 1010.7
20260502111825 50 306 0.0 0.0 0.00 0.00 0.00 83 1010.8
20260502111251 50 306 0.0 0.0 0.00 0.00 0.00 83 1010.8
20260502111043 50 306 0.0 0.0 0.00 0.00 0.00 83 1010.9
20260502110830 50 306 0.0 0.0 0.00 0.00 0.00 83 1010.9
20260502110619 50 306 0.0 0.0 0.00 0.00 0.00 83 1010.8
20260502110407 50 306 0.0 0.0 0.00 0.00 0.00 83 1010.9
20260502110203 50 306 0.0 0.0 0.00 0.00 0.00 83 1010.9
20260502105950 50 306 0.0 0.0 0.00 0.00 0.00 83 1010.9
20260502105737 50 306 0.0 0.0 0.00 0.00 0.00 83 1010.9
20260502105533 50 306 0.0 0.0 0.00 0.00 0.00 83 1011.0
20260502105320 50 306 0.0 0.0 0.00 0.00 0.00 83 1010.9
20260502104933 50 306 0.0 0.0 0.00 0.00 0.00 83 1011.0
20260502104725 50 306 0.0 0.0 0.00 0.00 0.00 83 1011.0
20260502104519 50 306 0.0 0.0 0.00 0.00 0.00 83 1010.9
20260502104316 50 306 0.0 0.0 0.00 0.00 0.00 83 1011.0
20260502104107 50 306 0.0 0.0 0.00 0.00 0.00 83 1010.9
20260502103906 50 306 0.0 0.0 0.00 0.00 0.00 83 1011.0
20260502103655 50 306 0.0 0.0 0.00 0.00 0.00 83 1011.0
20260502103445 50 306 0.0 0.0 0.00 0.00 0.00 83 1011.0
20260502103052 50 306 0.0 0.0 0.00 0.00 0.00 83 1011.0
20260502102841 50 306 0.0 0.0 0.00 0.00 0.00 82 1011.1
20260502102630 50 306 0.0 0.0 0.00 0.00 0.00 82 1011.2
20260502102239 50 306 0.0 0.0 0.00 0.00 0.00 82 1011.2
20260502102033 50 306 0.0 0.0 0.00 0.00 0.00 82 1011.2
20260502101635 50 306 0.0 0.0 0.00 0.00 0.00 82 1011.2
20260502101427 50 306 0.0 0.0 0.00 0.00 0.00 82 1011.2
20260502101219 50 306 0.0 0.0 0.00 0.00 0.00 82 1011.2
20260502100822 50 306 0.0 0.0 0.00 0.00 0.00 82 1011.2
20260502100431 50 306 0.0 0.0 0.00 0.00 0.00 82 1011.3
20260502100220 50 306 0.0 0.0 0.00 0.00 0.00 82 1011.2
20260502091426 50 306 0.0 0.0 0.00 0.00 0.00 81 1011.6
20260502091219 50 306 0.0 0.0 0.00 0.00 0.00 81 1011.7
20260502091013 50 306 0.0 0.0 0.00 0.00 0.00 81 1011.6
20260502090809 51 306 0.0 0.0 0.00 0.00 0.00 81 1011.6
20260502090419 50 306 0.0 0.0 0.00 0.00 0.00 80 1011.6
20260502071437 51 306 0.0 0.0 0.00 0.00 0.00 75 1011.8
20260502071236 51 306 0.0 0.0 0.00 0.00 0.00 75 1011.8
20260502071027 51 306 0.0 0.0 0.00 0.00 0.00 75 1011.7
20260502070814 51 306 0.0 0.0 0.00 0.00 0.00 75 1011.8
20260502070602 52 306 0.0 0.0 0.00 0.00 0.00 75 1011.8
20260502070358 52 306 0.0 0.0 0.00 0.00 0.00 74 1011.7
20260502070008 52 306 0.0 0.0 0.00 0.00 0.00 74 1011.7
20260502065755 52 306 0.0 0.0 0.00 0.00 0.00 74 1011.8
20260502065400 52 306 0.0 0.0 0.00 0.00 0.00 74 1011.7
20260502065004 52 306 0.0 0.0 0.00 0.00 0.00 74 1011.7
20260502064755 52 306 0.0 0.0 0.00 0.00 0.00 74 1011.6
20260502064544 52 306 0.0 0.0 0.00 0.00 0.00 74 1011.6
20260502064151 52 306 0.0 0.0 0.00 0.00 0.00 74 1011.7
20260502063800 52 306 0.0 0.0 0.00 0.00 0.00 74 1011.7
20260502063551 53 306 0.0 0.0 0.00 0.00 0.00 74 1011.7
20260502063349 53 306 0.0 0.0 0.00 0.00 0.00 74 1011.7
20260502063145 53 306 0.0 0.0 0.00 0.00 0.00 74 1011.7
20260502062750 53 306 0.0 0.0 0.00 0.00 0.00 74 1011.7
20260502062404 53 306 0.0 0.0 0.00 0.00 0.00 74 1011.6
20260502062202 53 306 0.0 0.0 0.00 0.00 0.00 74 1011.7
20260502061958 53 306 0.0 0.0 0.00 0.00 0.00 75 1011.7
20260502061750 53 306 0.0 0.0 0.00 0.00 0.00 75 1011.7
20260502061545 53 306 0.0 0.0 0.00 0.00 0.00 75 1011.7
20260502061343 53 306 0.0 0.0 0.00 0.00 0.00 75 1011.7
20260502061136 54 306 0.0 0.0 0.00 0.00 0.00 75 1011.7
20260502060932 54 306 0.0 0.0 0.00 0.00 0.00 75 1011.7
20260502060731 54 306 0.0 0.0 0.00 0.00 0.00 75 1011.7
20260502060524 54 306 0.0 0.0 0.00 0.00 0.00 75 1011.7
20260502060132 54 306 0.0 0.0 0.00 0.00 0.00 75 1011.7
20260502055739 54 306 0.0 0.0 0.00 0.00 0.00 75 1011.7
20260502055531 54 306 0.0 0.0 0.00 0.00 0.00 75 1011.7
20260502055328 54 306 0.0 0.0 0.00 0.00 0.00 75 1011.7
20260502055116 54 306 0.0 0.0 0.00 0.00 0.00 75 1011.7
20260502054907 55 306 0.0 0.0 0.00 0.00 0.00 75 1011.7
20260502054512 55 306 0.0 0.0 0.00 0.00 0.00 75 1011.7
20260502054301 55 306 0.0 0.0 0.00 0.00 0.00 75 1011.8
20260502054050 55 306 0.0 0.0 0.00 0.00 0.00 75 1011.8
20260502053845 55 306 0.0 0.0 0.00 0.00 0.00 75 1011.8
20260502053644 55 306 0.0 0.0 0.00 0.00 0.00 75 1011.8
20260502053431 55 306 0.0 0.0 0.00 0.00 0.00 74 1011.7
20260502053224 55 306 0.0 0.0 0.00 0.00 0.00 74 1011.7
20260502053013 55 306 0.0 0.0 0.00 0.00 0.00 74 1011.7
20260502052807 55 306 0.0 0.0 0.00 0.00 0.00 74 1011.7
20260502052558 56 306 0.0 0.0 0.00 0.00 0.00 74 1011.7
20260502052346 56 306 0.0 0.0 0.00 0.00 0.00 74 1011.7
20260502052140 56 306 0.0 0.0 0.00 0.00 0.00 74 1011.7
20260502051930 56 306 0.0 0.0 0.00 0.00 0.00 74 1011.7
20260502051726 56 306 0.0 0.0 0.00 0.00 0.00 74 1011.7
20260502051522 56 306 0.0 0.0 0.00 0.00 0.00 74 1011.6
20260502051315 56 306 0.0 0.0 0.00 0.00 0.00 74 1011.6
20260502051110 56 306 0.0 0.0 0.00 0.00 0.00 74 1011.7
20260502050857 56 306 0.0 0.0 0.00 0.00 0.00 74 1011.7
20260502050645 57 306 0.0 0.0 0.00 0.00 0.00 74 1011.7
20260502050438 57 306 0.0 0.0 0.00 0.00 0.00 74 1011.7
20260502050230 57 306 0.0 0.0 0.00 0.00 0.00 74 1011.7
20260502050025 57 306 0.0 0.0 0.00 0.00 0.00 73 1011.8
20260502045812 57 306 0.0 0.0 0.00 0.00 0.00 73 1011.7
20260502045424 57 306 0.0 0.0 0.00 0.00 0.00 73 1011.7
20260502045219 57 306 0.0 0.0 0.00 0.00 0.00 73 1011.7
20260502045017 57 306 0.0 0.0 0.00 0.00 0.00 73 1011.7
20260502044814 58 306 0.0 0.0 0.00 0.00 0.00 73 1011.6
20260502044608 58 306 0.0 0.0 0.00 0.00 0.00 73 1011.6
20260502044406 58 306 0.0 0.0 0.00 0.00 0.00 73 1011.5
20260502044200 58 306 0.0 0.0 0.00 0.00 0.00 73 1011.5
20260502043952 58 306 0.0 0.0 0.00 0.00 0.00 73 1011.5
20260502043603 58 306 0.0 0.0 0.00 0.00 0.00 72 1011.5
20260502043212 58 306 0.0 0.0 0.00 0.00 0.00 72 1011.5
20260502043009 59 306 0.0 0.0 0.00 0.00 0.00 72 1011.5
20260502042759 59 306 0.0 0.0 0.00 0.00 0.00 72 1011.5
20260502042554 59 306 0.0 0.0 0.00 0.00 0.00 72 1011.4
20260502042342 59 306 0.0 0.0 0.00 0.00 0.00 71 1011.5
20260502042130 59 306 0.0 0.0 0.00 0.00 0.00 71 1011.4
20260502041734 59 306 0.0 0.0 0.00 0.00 0.00 71 1011.4
20260502041527 60 306 0.0 0.0 0.00 0.00 0.00 71 1011.4
20260502041316 60 306 0.0 0.0 0.00 0.00 0.00 71 1011.3
20260502041107 60 306 0.0 0.0 0.00 0.00 0.00 70 1011.2
20260502040902 60 306 0.0 0.0 0.00 0.00 0.00 70 1011.3
20260502040656 60 306 0.0 0.0 0.00 0.00 0.00 70 1011.3
20260502040448 60 306 0.0 0.0 0.00 0.00 0.00 70 1011.2
20260502040236 60 306 0.0 0.0 0.00 0.00 0.00 70 1011.2
20260502040024 61 306 0.0 0.0 0.00 0.00 0.00 69 1011.2
20260502035812 61 306 0.0 0.0 0.00 0.00 0.00 69 1011.1
20260502035610 61 306 0.0 0.0 0.00 0.00 0.00 69 1011.1
20260502035407 61 306 0.0 0.0 0.00 0.00 0.00 69 1011.1
20260502035155 61 306 0.0 0.0 0.00 0.00 0.00 68 1011.1
20260502034949 61 306 0.0 0.0 0.00 0.00 0.00 68 1011.0
20260502034738 62 306 0.0 0.0 0.00 0.00 0.00 68 1011.0
20260502034531 62 306 0.0 0.0 0.00 0.00 0.00 68 1010.9
20260502034329 62 306 0.0 0.0 0.00 0.00 0.00 68 1010.9
20260502034124 62 306 0.0 0.0 0.00 0.00 0.00 68 1010.9
20260502033912 62 306 0.0 0.0 0.00 0.00 0.00 67 1010.9
20260502033702 62 306 0.0 0.0 0.00 0.00 0.00 67 1010.9
20260502033455 63 306 0.0 0.0 0.00 0.00 0.00 67 1010.8
20260502033249 63 306 0.0 0.0 0.00 0.00 0.00 66 1010.8
20260502032901 63 306 0.0 0.0 0.00 0.00 0.00 66 1010.7
20260502032507 63 306 0.0 0.0 0.00 0.00 0.00 66 1010.7
20260502032259 64 306 0.0 0.0 0.00 0.00 0.00 66 1010.7
20260502032046 64 306 0.0 0.0 0.00 0.00 0.00 65 1010.7
20260502031842 64 306 0.0 0.0 0.00 0.00 0.00 65 1010.7
20260502031636 64 306 0.0 0.0 0.00 0.00 0.00 65 1010.6
20260502031426 64 306 0.0 0.0 0.00 0.00 0.00 65 1010.7
20260502031215 65 306 0.0 0.0 0.00 0.00 0.00 64 1010.6
20260502031011 65 306 0.0 0.0 0.00 0.00 0.00 64 1010.6
20260502030801 65 306 0.0 0.0 0.00 0.00 0.00 64 1010.5
20260502030600 65 306 0.0 0.0 0.00 0.00 0.00 64 1010.6
20260502030204 65 306 0.0 0.0 0.00 0.00 0.00 63 1010.5
20260502025812 66 306 0.0 0.0 0.00 0.00 0.00 63 1010.5
20260502025604 66 306 0.0 0.0 0.00 0.00 0.00 63 1010.4
20260502025356 66 306 0.0 0.0 0.00 0.00 0.00 63 1010.4
20260502025149 66 306 0.0 0.0 0.00 0.00 0.00 63 1010.4
20260502024947 66 306 0.0 0.0 0.00 0.00 0.00 63 1010.5
20260502024557 67 306 0.0 0.0 0.00 0.00 0.00 62 1010.5
20260502024201 67 306 0.0 0.0 0.00 0.00 0.00 62 1010.4
20260502023812 67 306 0.0 0.0 0.00 0.00 0.00 62 1010.5
20260502023605 67 306 0.0 0.0 0.00 0.00 0.00 61 1010.4
20260502023357 68 306 0.0 0.0 0.00 0.00 0.00 61 1010.4
20260502022819 68 306 0.0 0.0 0.00 0.00 0.00 60 1010.4
20260502022614 68 306 0.0 0.0 0.00 0.00 0.00 59 1010.4
20260502022409 69 306 0.0 0.0 0.00 0.00 0.00 59 1010.4
20260502022159 69 306 0.0 0.0 0.00 0.00 0.00 59 1010.4
20260502021950 69 306 0.0 0.0 0.00 0.00 0.00 58 1010.4
20260502021737 69 306 0.0 0.0 0.00 0.00 0.00 57 1010.4
20260502021526 70 306 0.0 0.0 0.00 0.00 0.00 57 1010.4
20260502021314 70 306 0.0 0.0 0.00 0.00 0.00 57 1010.4
20260502021108 70 306 0.0 0.0 0.00 0.00 0.00 57 1010.5
20260502020903 70 306 0.0 0.0 0.00 0.00 0.00 56 1010.4
20260502020650 71 306 0.0 0.0 0.00 0.00 0.00 56 1010.4
20260502020111 71 306 0.0 0.0 0.00 0.00 0.00 54 1010.4
20260502015909 71 306 0.0 0.0 0.00 0.00 0.00 54 1010.4
20260502015701 72 306 0.0 0.0 0.00 0.00 0.00 54 1010.4
20260502015453 72 306 0.0 0.0 0.00 0.00 0.00 53 1010.4
20260502015247 72 306 0.0 0.0 0.00 0.00 0.00 53 1010.4
20260502015036 72 306 0.0 1.0 0.00 0.00 0.00 50 1010.3
20260502014825 72 306 0.0 1.0 0.00 0.00 0.00 51 1010.4
20260502014622 72 306 0.0 1.0 0.00 0.00 0.00 50 1010.3
20260502014410 73 306 0.0 0.0 0.00 0.00 0.00 50 1010.3
20260502014200 73 306 0.0 0.0 0.00 0.00 0.00 51 1010.3
20260502013955 73 306 0.0 1.0 0.00 0.00 0.00 49 1010.3
20260502013753 73 306 0.0 1.0 0.00 0.00 0.00 48 1010.3
20260502013546 73 307 0.0 1.0 0.00 0.00 0.00 49 1010.3
20260502013342 73 307 0.0 1.0 0.00 0.00 0.00 48 1010.3
20260502013130 73 308 0.0 1.0 0.00 0.00 0.00 49 1010.3
20260502012919 73 307 0.0 0.0 0.00 0.00 0.00 49 1010.3
20260502012707 74 307 0.0 0.0 0.00 0.00 0.00 47 1010.3
20260502012503 74 308 0.0 5.0 0.00 0.00 0.00 46 1010.2
20260502012251 74 266 0.0 2.0 0.00 0.00 0.00 45 1010.3
20260502012043 74 263 0.0 1.0 0.00 0.00 0.00 46 1010.4
20260502011831 74 262 0.0 0.0 0.00 0.00 0.00 45 1010.3
20260502011620 74 262 0.0 0.0 0.00 0.00 0.00 46 1010.4
20260502011410 75 261 0.0 0.0 0.00 0.00 0.00 45 1010.4
20260502011207 75 261 0.0 6.0 0.00 0.00 0.00 45 1010.3
20260502010954 75 266 0.0 6.0 0.00 0.00 0.00 45 1010.4
20260502010745 75 184 0.0 6.0 0.00 0.00 0.00 45 1010.4
20260502010537 75 355 0.0 6.0 0.00 0.00 0.00 46 1010.3
20260502010327 75 197 0.0 4.0 0.00 0.00 0.00 47 1010.3
20260502010115 75 193 0.0 4.0 0.00 0.00 0.00 45 1010.4
20260502005910 75 193 0.0 4.0 0.00 0.00 0.00 44 1010.4
20260502005658 75 197 0.0 3.0 0.00 0.00 0.00 44 1010.5
20260502005453 75 236 1.0 0.0 0.00 0.00 0.00 45 1010.5
20260502005246 75 236 1.0 4.0 0.00 0.00 0.00 44 1010.6
20260502004851 75 236 1.0 4.0 0.00 0.00 0.00 44 1010.6
20260502004643 75 221 0.0 4.0 0.00 0.00 0.00 44 1010.5
20260502004440 75 229 0.0 4.0 0.00 0.00 0.00 45 1010.5
20260502004050 75 290 0.0 4.0 0.00 0.00 0.00 45 1010.5
20260502003657 75 192 0.0 4.0 0.00 0.00 0.00 45 1010.5
20260502003450 75 192 1.0 4.0 0.00 0.00 0.00 44 1010.4
20260502003244 75 192 1.0 7.0 0.00 0.00 0.00 46 1010.5
20260502003033 75 192 1.0 7.0 0.00 0.00 0.00 45 1010.5
20260502002635 76 239 1.0 7.0 0.00 0.00 0.00 44 1010.6
20260502002424 76 165 1.0 7.0 0.00 0.00 0.00 44 1010.5
20260502002212 76 291 1.0 7.0 0.00 0.00 0.00 44 1010.4
20260502001819 76 283 1.0 7.0 0.00 0.00 0.00 45 1010.4
20260502001426 76 212 0.0 5.0 0.00 0.00 0.00 46 1010.6
20260502001215 76 259 0.0 5.0 0.00 0.00 0.00 43 1010.6
20260502001012 76 234 0.0 5.0 0.00 0.00 0.00 42 1010.5
20260502000810 76 298 0.0 5.0 0.00 0.00 0.00 42 1010.6
20260502000601 76 190 0.0 5.0 0.00 0.00 0.00 43 1010.7
20260502000355 76 190 0.0 5.0 0.00 0.00 0.00 44 1010.7
20260502000004 76 164 1.0 5.0 0.00 0.00 0.00 42 1010.6
20260501235616 76 261 0.0 3.0 0.00 0.00 0.00 42 1010.6
20260501235408 76 261 0.0 3.0 0.00 0.00 0.00 43 1010.6
20260501235203 76 261 0.0 7.0 0.00 0.00 0.00 40 1010.7
20260501234958 76 134 0.0 7.0 0.00 0.00 0.00 41 1010.7
20260501234746 76 28 0.0 7.0 0.00 0.00 0.00 41 1010.7
20260501234540 76 320 0.0 7.0 0.00 0.00 0.00 42 1010.8
20260501234337 75 313 1.0 7.0 0.00 0.00 0.00 42 1010.8
20260501234131 75 340 1.0 7.0 0.00 0.00 0.00 42 1010.8
20260501233927 75 273 1.0 7.0 0.00 0.00 0.00 43 1010.8
20260501233721 75 286 1.0 7.0 0.00 0.00 0.00 42 1010.8
20260501233509 75 323 1.0 7.0 0.00 0.00 0.00 41 1010.8
20260501233112 75 256 1.0 6.0 0.00 0.00 0.00 42 1010.7
20260501232904 75 252 1.0 6.0 0.00 0.00 0.00 42 1010.7
20260501232655 76 285 0.0 6.0 0.00 0.00 0.00 42 1010.7
20260501232446 76 264 1.0 6.0 0.00 0.00 0.00 42 1010.7
20260501232238 76 265 1.0 6.0 0.00 0.00 0.00 44 1010.7
20260501232030 75 231 1.0 6.0 0.00 0.00 0.00 43 1010.7
20260501231825 76 214 0.0 6.0 0.00 0.00 0.00 43 1010.7
20260501231427 76 249 0.0 6.0 0.00 0.00 0.00 43 1010.8
20260501231033 76 276 0.0 2.0 0.00 0.00 0.00 44 1010.7
20260501230823 76 276 0.0 5.0 0.00 0.00 0.00 42 1010.7
20260501230613 76 166 0.0 1.0 0.00 0.00 0.00 41 1010.9
20260501230223 77 293 1.0 5.0 0.00 0.00 0.00 42 1011.0
20260501230016 77 293 1.0 8.0 0.00 0.00 0.00 42 1011.0
20260501225624 77 234 1.0 8.0 0.00 0.00 0.00 43 1011.0
20260501225236 76 288 1.0 8.0 0.00 0.00 0.00 45 1011.0
20260501225032 75 288 2.0 8.0 0.00 0.00 0.00 44 1011.1
20260501224645 75 277 1.0 8.0 0.00 0.00 0.00 45 1011.2
20260501224257 75 269 1.0 8.0 0.00 0.00 0.00 44 1011.3
20260501223910 76 221 1.0 6.0 0.00 0.00 0.00 47 1011.3
20260501223706 75 322 1.0 6.0 0.00 0.00 0.00 46 1011.3
20260501223318 75 177 1.0 5.0 0.00 0.00 0.00 46 1011.3
20260501223112 75 269 1.0 5.0 0.00 0.00 0.00 44 1011.3
20260501222907 76 273 1.0 5.0 0.00 0.00 0.00 44 1011.4
20260501222511 76 252 0.0 5.0 0.00 0.00 0.00 45 1011.5
20260501222305 76 248 0.0 5.0 0.00 0.00 0.00 46 1011.5
20260501222053 76 279 0.0 5.0 0.00 0.00 0.00 44 1011.6
20260501221844 76 327 0.0 5.0 0.00 0.00 0.00 46 1011.6
20260501221449 77 69 1.0 5.0 0.00 0.00 0.00 44 1011.7
20260501221240 77 165 0.0 5.0 0.00 0.00 0.00 44 1011.7
20260501221027 77 271 0.0 5.0 0.00 0.00 0.00 46 1011.7
20260501220447 76 5 1.0 5.0 0.00 0.00 0.00 45 1011.8
20260501220246 76 279 1.0 5.0 0.00 0.00 0.00 46 1011.8
20260501220038 76 278 1.0 5.0 0.00 0.00 0.00 45 1011.9
20260501215640 76 185 1.0 5.0 0.00 0.00 0.00 44 1011.9
20260501215430 77 154 1.0 5.0 0.00 0.00 0.00 41 1011.9
20260501215218 77 240 1.0 4.0 0.00 0.00 0.00 42 1011.9
20260501215008 77 236 1.0 4.0 0.00 0.00 0.00 43 1011.9
20260501214759 77 217 1.0 8.0 0.00 0.00 0.00 41 1012.0
20260501214549 76 255 1.0 8.0 0.00 0.00 0.00 42 1011.9
20260501214152 76 252 2.0 8.0 0.00 0.00 0.00 42 1012.0
20260501213949 76 186 2.0 8.0 0.00 0.00 0.00 39 1012.0
20260501213745 76 288 2.0 8.0 0.00 0.00 0.00 44 1011.9
20260501213542 76 169 2.0 8.0 0.00 0.00 0.00 41 1011.9
20260501213338 76 173 2.0 8.0 0.00 0.00 0.00 42 1011.9
20260501212946 76 165 2.0 8.0 0.00 0.00 0.00 41 1012.1
20260501212736 76 253 1.0 7.0 0.00 0.00 0.00 41 1012.0
20260501212344 76 244 1.0 6.0 0.00 0.00 0.00 42 1012.0
20260501212140 76 260 1.0 6.0 0.00 0.00 0.00 41 1012.0
20260501211938 77 196 0.0 6.0 0.00 0.00 0.00 43 1012.0
20260501211732 76 195 1.0 6.0 0.00 0.00 0.00 43 1012.0
20260501211346 76 249 0.0 6.0 0.00 0.00 0.00 43 1012.1
20260501211137 76 253 0.0 6.0 0.00 0.00 0.00 45 1012.0
20260501210932 76 252 1.0 6.0 0.00 0.00 0.00 44 1012.1
20260501210727 76 252 1.0 6.0 0.00 0.00 0.00 45 1012.1
20260501210519 75 252 1.0 6.0 0.00 0.00 0.00 44 1012.1
20260501210128 76 190 1.0 6.0 0.00 0.00 0.00 45 1012.1
20260501205916 76 273 1.0 6.0 0.00 0.00 0.00 44 1012.0
20260501205714 76 273 1.0 6.0 0.00 0.00 0.00 45 1012.1
20260501205512 75 325 1.0 3.0 0.00 0.00 0.00 45 1012.0
20260501205306 75 202 1.0 0.0 0.00 0.00 0.00 44 1012.1
20260501205052 76 202 1.0 6.0 0.00 0.00 0.00 44 1012.1
20260501204845 75 188 1.0 7.0 0.00 0.00 0.00 44 1012.1
20260501204306 75 219 1.0 7.0 0.00 0.00 0.00 45 1012.1
20260501204104 75 221 1.0 7.0 0.00 0.00 0.00 45 1012.1
20260501203851 75 225 1.0 7.0 0.00 0.00 0.00 44 1012.2
20260501203649 75 207 1.0 7.0 0.00 0.00 0.00 44 1012.2
20260501203447 75 200 1.0 7.0 0.00 0.00 0.00 43 1012.2
20260501203240 76 240 1.0 7.0 0.00 0.00 0.00 45 1012.2
20260501203031 76 157 1.0 7.0 0.00 0.00 0.00 44 1012.2
20260501202639 76 261 1.0 6.0 0.00 0.00 0.00 41 1012.2
20260501202105 76 255 1.0 6.0 0.00 0.00 0.00 43 1012.3
20260501201856 76 280 0.0 5.0 0.00 0.00 0.00 45 1012.3
20260501201644 75 317 0.0 5.0 0.00 0.00 0.00 44 1012.3
20260501201438 75 336 0.0 5.0 0.00 0.00 0.00 43 1012.3
20260501201234 75 243 0.0 5.0 0.00 0.00 0.00 43 1012.4
20260501201023 75 243 1.0 8.0 0.00 0.00 0.00 44 1012.4
20260501200813 75 243 1.0 8.0 0.00 0.00 0.00 42 1012.5
20260501200601 75 191 2.0 8.0 0.00 0.00 0.00 42 1012.5
20260501200349 75 275 1.0 8.0 0.00 0.00 0.00 42 1012.5
20260501200139 75 194 2.0 8.0 0.00 0.00 0.00 41 1012.6
20260501195935 75 189 1.0 8.0 0.00 0.00 0.00 40 1012.5
20260501195539 75 258 1.0 8.0 0.00 0.00 0.00 40 1012.5
20260501195332 75 201 1.0 8.0 0.00 0.00 0.00 41 1012.5
20260501195122 75 193 0.0 6.0 0.00 0.00 0.00 46 1012.6
20260501194919 75 193 0.0 6.0 0.00 0.00 0.00 42 1012.6
20260501194714 75 193 1.0 6.0 0.00 0.00 0.00 41 1012.6
20260501194502 75 292 1.0 5.0 0.00 0.00 0.00 44 1012.6
20260501194249 75 292 1.0 5.0 0.00 0.00 0.00 41 1012.6
20260501194037 75 292 1.0 5.0 0.00 0.00 0.00 40 1012.6
20260501193832 76 288 1.0 5.0 0.00 0.00 0.00 40 1012.7
20260501193623 75 288 1.0 4.0 0.00 0.00 0.00 43 1012.7
20260501193411 75 279 1.0 4.0 0.00 0.00 0.00 42 1012.8
20260501193205 75 271 1.0 4.0 0.00 0.00 0.00 41 1012.8
20260501192955 75 271 0.0 4.0 0.00 0.00 0.00 42 1012.8
20260501192602 75 270 0.0 7.0 0.00 0.00 0.00 43 1012.8
20260501192349 74 270 0.0 7.0 0.00 0.00 0.00 40 1012.8
20260501192142 74 269 0.0 7.0 0.00 0.00 0.00 41 1013.0
20260501191933 74 277 1.0 7.0 0.00 0.00 0.00 40 1013.0
20260501191731 74 289 2.0 7.0 0.00 0.00 0.00 41 1013.0
20260501191520 74 210 2.0 7.0 0.00 0.00 0.00 41 1013.0
20260501191122 74 303 2.0 7.0 0.00 0.00 0.00 39 1013.1
20260501190911 74 296 2.0 7.0 0.00 0.00 0.00 40 1013.1
20260501190709 74 299 1.0 7.0 0.00 0.00 0.00 41 1013.2
20260501190500 74 259 1.0 7.0 0.00 0.00 0.00 43 1013.1
20260501190258 74 259 1.0 7.0 0.00 0.00 0.00 39 1013.2
20260501190054 74 257 1.0 7.0 0.00 0.00 0.00 40 1013.2
20260501185842 73 306 1.0 7.0 0.00 0.00 0.00 43 1013.2
20260501185638 73 299 1.0 7.0 0.00 0.00 0.00 42 1013.2
20260501185435 73 298 1.0 7.0 0.00 0.00 0.00 41 1013.2
20260501185231 73 300 1.0 7.0 0.00 0.00 0.00 43 1013.3
20260501185022 73 160 1.0 7.0 0.00 0.00 0.00 41 1013.2
20260501184819 73 298 1.0 6.0 0.00 0.00 0.00 43 1013.2
20260501184607 73 205 0.0 5.0 0.00 0.00 0.00 43 1013.3
20260501184218 73 274 1.0 5.0 0.00 0.00 0.00 42 1013.3
20260501184010 73 223 1.0 5.0 0.00 0.00 0.00 41 1013.3
20260501183801 73 221 1.0 5.0 0.00 0.00 0.00 42 1013.3
20260501183557 73 257 1.0 5.0 0.00 0.00 0.00 41 1013.3
20260501183349 72 258 1.0 5.0 0.00 0.00 0.00 44 1013.3
20260501182954 72 263 0.0 6.0 0.00 0.00 0.00 43 1013.4
20260501182749 72 257 0.0 6.0 0.00 0.00 0.00 44 1013.4
20260501182401 72 235 0.0 6.0 0.00 0.00 0.00 44 1013.4
20260501182148 72 235 1.0 6.0 0.00 0.00 0.00 43 1013.4
20260501181936 72 235 1.0 6.0 0.00 0.00 0.00 42 1013.5
20260501181546 72 276 1.0 6.0 0.00 0.00 0.00 45 1013.5
20260501181333 72 347 1.0 6.0 0.00 0.00 0.00 46 1013.5
20260501181125 71 290 1.0 5.0 0.00 0.00 0.00 45 1013.4
20260501180916 71 300 0.0 5.0 0.00 0.00 0.00 49 1013.4